Date,TemperatureHighF,TemperatureAvgF,TemperatureLowF,DewpointHighF,DewpointAvgF,DewpointLowF,HumidityHigh,HumidityAvg,HumidityLow,PressureMaxIn,PressureMinIn,WindSpeedMaxMPH,WindSpeedAvgMPH,GustSpeedMaxMPH,PrecipitationSumIn
2013-1-1,32,29,23,32,26,18,99,88,69,30.09,29.97,5,2,8,0.00
2013-1-2,27,20,13,20,15,10,95,82,64,30.19,30.07,4,1,6,0.00
2013-1-3,34,24,12,23,16,8,88,73,42,30.23,30.12,8,3,13,0.04
2013-1-4,35,29,24,24,20,18,80,70,52,30.27,30.20,11,6,19,0.01
2013-1-5,41,31,20,27,24,18,95,75,54,30.30,30.09,9,4,13,0.00
2013-1-6,38,32,25,33,27,21,94,81,71,30.28,29.96,12,5,16,0.00
2013-1-7,40,30,21,26,24,20,97,80,58,30.41,30.19,6,2,11,0.00
2013-1-8,50,34,22,32,27,20,95,78,51,30.26,30.15,7,2,11,0.00
2013-1-9,52,43,34,42,35,30,94,74,56,30.45,30.15,8,4,11,0.04
2013-1-10,42,35,28,36,31,27,98,86,73,30.46,30.07,7,3,11,0.05
2013-1-11,61,53,42,56,48,36,99,86,68,30.08,29.85,12,4,18,0.32
2013-1-12,65,59,54,63,56,50,99,92,75,30.00,29.77,9,5,16,0.01
2013-1-13,66,54,35,63,53,34,99,96,80,30.07,29.70,17,7,22,0.59
2013-1-14,35,26,23,34,22,19,98,86,75,30.39,30.07,8,1,11,0.00
2013-1-15,33,27,22,25,22,19,92,81,69,30.32,30.02,5,1,8,0.00
2013-1-16,35,32,30,28,25,22,88,77,58,30.03,29.91,7,3,10,0.00
2013-1-17,43,33,25,31,25,17,84,72,55,30.32,30.02,9,3,14,0.00
2013-1-18,38,29,18,23,17,13,85,63,37,30.45,30.15,13,5,19,0.00
2013-1-19,54,44,36,28,24,23,60,47,30,30.15,29.84,16,10,24,0.00
2013-1-20,46,32,23,35,16,7,72,51,33,30.16,29.84,16,7,22,0.00
2013-1-21,23,19,8,16,9,-3,86,65,49,30.15,30.01,12,6,19,0.00
2013-1-22,17,10,4,1,-2,-4,72,57,43,30.29,30.15,9,5,14,0.00
2013-1-23,19,15,10,14,5,-2,83,64,42,30.27,30.02,9,3,12,0.00
2013-1-24,23,17,11,15,7,3,88,66,47,30.51,30.05,10,4,17,0.00
2013-1-25,25,20,17,21,14,8,87,76,62,30.38,29.97,6,4,10,0.00
2013-1-26,33,25,18,22,18,14,90,76,59,30.37,30.04,6,3,9,0.05
2013-1-27,36,27,16,32,21,13,98,78,62,30.38,30.12,6,2,10,0.21
2013-1-28,52,46,32,52,45,32,99,98,87,30.12,29.97,10,6,15,0.25
2013-1-29,65,58,51,59,54,51,99,88,72,30.01,29.56,14,8,21,0.00
2013-1-30,67,53,32,59,49,26,99,85,75,29.56,29.24,16,9,28,0.61
2013-1-31,32,25,14,27,18,10,95,75,52,29.95,29.48,12,7,18,0.01
2013-2-1,15,10,5,9,2,-2,79,68,55,30.31,29.95,13,5,18,0.00
2013-2-2,28,21,10,24,17,4,94,86,75,30.25,29.91,8,4,15,0.00
2013-2-3,26,20,15,24,15,10,91,80,62,30.04,29.86,8,4,12,0.00
2013-2-4,32,25,16,32,22,14,98,88,66,30.04,29.77,7,2,12,0.00
2013-2-5,34,30,25,32,26,22,98,86,70,29.94,29.78,8,3,14,0.01
2013-2-6,38,32,27,30,25,22,87,77,57,30.22,29.94,7,3,11,0.00
2013-2-7,55,40,27,37,31,23,87,71,48,30.17,29.76,9,3,14,0.00
2013-2-8,51,36,28,43,30,20,96,81,53,30.26,29.74,12,7,19,0.11
2013-2-9,40,29,19,22,19,16,92,69,40,30.36,30.18,4,2,8,0.00
2013-2-10,52,40,28,45,29,21,93,65,37,30.19,29.75,11,5,17,0.00
2013-2-11,52,45,37,50,35,26,98,69,46,29.97,29.70,15,9,21,0.00
2013-2-12,48,37,28,28,25,22,82,63,37,30.07,29.87,8,3,12,0.00
2013-2-13,37,31,27,29,27,25,94,86,66,29.88,29.72,6,3,8,0.00
2013-2-14,51,38,30,38,33,28,99,82,54,29.93,29.75,12,6,18,0.00
2013-2-15,40,32,22,35,28,20,96,85,62,30.09,29.91,10,3,14,0.00
2013-2-16,28,20,14,21,15,8,96,80,61,30.08,29.97,9,4,14,0.00
2013-2-17,29,20,13,13,9,6,81,65,44,30.17,30.04,6,3,10,0.00
2013-2-18,57,39,19,40,23,10,82,55,34,30.15,29.70,16,6,27,0.05
2013-2-19,45,30,22,42,25,14,98,81,67,30.03,29.60,15,5,26,0.11
2013-2-20,24,20,15,17,12,8,83,71,61,30.24,30.03,8,5,11,0.00
2013-2-21,27,24,20,22,17,13,84,76,68,30.29,30.03,8,4,13,0.00
2013-2-22,40,33,26,39,31,22,99,94,83,30.03,29.84,9,2,15,0.09
2013-2-23,42,34,30,34,27,24,99,76,52,29.93,29.85,7,3,10,0.01
2013-2-24,41,30,26,25,22,20,86,71,52,30.10,29.88,7,3,11,0.00
2013-2-25,45,34,22,27,23,19,91,67,47,30.13,29.89,8,3,12,0.00
2013-2-26,44,39,33,44,35,24,99,87,62,29.89,29.36,9,6,15,0.60
2013-2-27,42,36,32,42,35,30,99,95,87,29.66,29.46,12,7,17,0.08
2013-2-28,35,33,30,34,32,30,99,96,89,29.88,29.62,7,2,11,0.05
2013-3-1,35,32,28,33,29,22,97,88,76,29.99,29.87,5,2,8,0.00
2013-3-2,28,26,25,22,20,18,85,78,72,30.01,29.97,7,4,11,0.00
2013-3-3,31,27,24,21,17,14,83,66,52,30.02,29.96,10,4,17,0.00
2013-3-4,43,30,17,29,19,14,94,66,33,30.11,29.97,5,2,7,0.02
2013-3-5,37,34,32,34,31,28,99,90,70,29.99,29.54,7,2,11,0.26
2013-3-6,33,30,28,32,29,28,99,97,93,30.18,29.55,0,0,0,0.00
2013-3-7,40,33,30,35,29,24,97,85,69,30.32,30.16,6,2,8,0.22
2013-3-8,44,33,24,26,23,21,90,68,45,30.41,30.31,6,2,8,0.01
2013-3-9,54,41,29,36,31,24,89,68,49,30.33,30.00,7,3,11,0.00
2013-3-10,68,58,48,39,33,26,62,39,21,30.00,29.80,12,6,17,0.00
2013-3-11,60,48,38,52,44,32,97,86,43,29.83,29.55,13,6,21,0.96
2013-3-12,42,36,33,33,29,26,92,77,58,29.98,29.79,8,5,14,0.00
2013-3-13,33,29,26,31,23,17,94,78,56,30.23,29.93,11,6,17,0.00
2013-3-14,43,32,22,21,18,12,88,61,31,30.28,30.09,7,3,12,0.00
2013-3-15,51,40,30,41,33,20,95,75,54,30.10,29.75,6,3,11,0.00
2013-3-16,56,43,34,50,40,31,99,89,74,29.98,29.57,11,4,15,0.13
2013-3-17,37,34,32,31,28,24,90,77,69,30.11,29.97,8,4,11,0.00
2013-3-18,49,39,32,49,38,27,99,95,73,29.97,29.56,9,4,16,0.83
2013-3-19,41,35,27,35,21,13,89,59,33,30.02,29.75,15,8,27,0.00
2013-3-20,35,30,23,19,15,8,68,54,42,30.02,29.88,11,6,16,0.00
2013-3-21,31,24,19,18,13,10,74,62,50,29.96,29.87,8,4,13,0.00
2013-3-22,43,31,20,20,16,14,79,55,32,30.00,29.93,7,3,10,0.00
2013-3-23,50,38,28,24,20,16,73,51,27,30.02,29.87,6,2,10,0.00
2013-3-24,36,33,31,34,28,23,99,84,62,29.87,29.38,8,5,13,0.00
2013-3-25,33,31,28,32,30,28,99,98,94,29.87,29.38,7,0,11,0.00
2013-3-26,41,34,30,33,30,24,99,84,59,30.15,29.87,10,3,14,0.48
2013-3-27,41,35,29,29,26,21,87,70,46,30.23,30.15,8,4,15,0.00
2013-3-28,49,39,28,28,25,22,79,58,40,30.28,30.21,7,3,11,0.00
2013-3-29,55,42,28,33,28,23,91,61,34,30.26,30.15,6,2,10,0.00
2013-3-30,58,46,30,36,29,21,90,56,28,30.19,29.91,7,2,10,0.00
2013-3-31,57,49,45,48,41,32,98,75,52,29.90,29.72,8,3,15,0.06
2013-4-1,49,41,34,42,25,15,84,55,33,30.07,29.74,9,6,14,0.00
2013-4-2,46,35,23,19,16,12,75,48,26,30.21,30.07,8,3,13,0.00
2013-4-3,48,36,25,16,12,7,61,38,20,30.35,30.20,7,2,9,0.00
2013-4-4,55,42,30,19,13,3,53,34,12,30.30,29.93,7,3,11,0.00
2013-4-5,60,47,34,30,24,19,59,41,26,30.10,29.92,8,3,14,0.00
2013-4-6,64,50,34,35,25,19,60,40,22,30.18,29.86,9,4,12,0.00
2013-4-7,73,64,58,52,40,33,74,41,28,29.95,29.79,13,6,19,0.00
2013-4-8,72,62,52,55,52,48,97,71,51,29.97,29.83,14,6,24,0.00
2013-4-9,81,69,54,59,55,51,92,63,37,30.01,29.88,15,5,22,0.00
2013-4-10,83,72,62,64,60,57,85,66,44,29.92,29.76,14,7,25,0.00
2013-4-11,65,61,58,64,59,56,99,93,83,29.81,29.51,9,3,14,0.89
2013-4-12,58,46,39,58,40,30,99,80,58,29.87,29.48,10,6,14,0.12
2013-4-13,55,46,40,37,34,32,80,66,47,29.99,29.86,10,5,16,0.00
2013-4-14,70,53,36,44,38,32,86,60,32,30.03,29.85,6,3,10,0.09
2013-4-15,68,61,53,54,49,40,80,65,49,29.96,29.85,9,4,19,0.00
2013-4-16,78,63,56,63,58,53,99,83,57,30.14,29.91,10,5,19,0.69
2013-4-17,77,62,51,65,59,51,99,89,63,30.19,29.93,6,3,11,0.40
2013-4-18,84,73,64,64,58,48,95,62,35,29.94,29.58,16,9,27,0.00
2013-4-19,74,50,39,62,40,28,99,72,47,29.91,29.41,14,8,21,0.38
2013-4-20,49,40,35,34,28,23,94,63,38,30.34,29.90,9,5,17,0.01
2013-4-21,54,43,31,28,24,20,70,49,27,30.48,30.33,6,3,10,0.00
2013-4-22,70,54,36,40,31,24,69,44,24,30.33,30.10,6,2,11,0.00
2013-4-23,70,60,48,52,44,37,68,56,39,30.10,29.82,10,4,19,0.00
2013-4-24,65,50,37,56,44,34,99,82,55,30.17,29.74,12,6,25,0.59
2013-4-25,58,45,34,37,33,26,99,66,34,30.33,30.16,11,5,17,0.00
2013-4-26,61,48,32,35,29,22,87,52,24,30.41,30.30,4,2,8,0.00
2013-4-27,69,55,41,51,39,32,85,57,25,30.31,30.03,8,2,12,0.00
2013-4-28,68,58,54,60,56,50,99,92,68,30.03,29.79,8,3,16,0.32
2013-4-29,63,58,54,59,55,52,99,90,69,29.96,29.84,5,2,8,0.04
2013-4-30,78,63,49,59,53,48,99,73,38,30.03,29.94,5,2,9,0.00
2013-5-1,84,69,54,60,55,51,95,64,33,30.15,30.03,6,2,9,0.00
2013-5-2,74,66,58,56,53,52,80,64,47,30.19,30.06,6,2,11,0.00
2013-5-3,77,67,60,56,50,33,83,57,25,30.07,29.94,7,3,13,0.00
2013-5-4,71,64,58,48,43,36,64,47,32,29.99,29.92,7,4,13,0.00
2013-5-5,65,59,54,50,43,36,78,56,35,29.97,29.89,6,2,10,0.01
2013-5-6,60,57,53,59,55,49,99,94,78,29.94,29.88,4,2,8,0.52
2013-5-7,73,62,55,60,57,55,99,85,53,29.95,29.88,4,1,6,0.02
2013-5-8,76,64,54,59,56,52,99,76,48,29.96,29.89,5,2,9,0.00
2013-5-9,80,67,54,60,56,50,99,70,37,29.99,29.90,6,1,14,0.00
2013-5-10,70,63,60,64,61,58,99,95,80,29.94,29.76,9,2,13,1.22
2013-5-11,61,52,44,60,49,40,99,91,76,29.95,29.81,7,3,16,0.00
2013-5-12,53,46,39,40,34,27,98,65,37,30.07,29.95,7,3,12,0.00
2013-5-13,60,50,39,37,30,20,83,51,22,30.13,30.05,7,2,11,0.00
2013-5-14,80,63,43,58,44,33,78,51,34,30.09,29.78,10,4,17,0.00
2013-5-15,87,77,68,59,57,55,71,53,35,29.83,29.76,9,5,18,0.00
2013-5-16,77,69,64,68,63,56,99,81,51,29.95,29.79,6,2,9,0.26
2013-5-17,81,67,60,69,63,59,99,89,52,30.04,29.94,6,1,10,0.11
2013-5-18,78,69,62,69,65,62,99,87,64,30.04,29.93,3,0,5,0.02
2013-5-19,81,71,62,70,66,62,99,83,58,29.98,29.86,5,1,7,0.00
2013-5-20,85,76,68,71,68,65,99,79,56,29.97,29.84,7,2,12,0.00
2013-5-21,84,76,68,69,64,58,88,66,44,29.91,29.75,9,4,14,0.00
2013-5-22,79,70,64,68,63,60,99,81,55,29.81,29.69,10,3,14,0.21
2013-5-23,68,62,49,65,58,45,99,89,68,30.05,29.75,9,3,14,0.14
2013-5-24,63,53,45,45,39,32,88,63,32,30.26,30.05,7,3,11,0.00
2013-5-25,66,55,43,44,40,34,89,60,32,30.34,30.18,3,1,5,0.00
2013-5-26,70,60,48,46,42,38,86,54,32,30.27,30.15,3,1,6,0.00
2013-5-27,79,65,51,61,53,45,96,67,43,30.18,29.91,6,2,11,0.21
2013-5-28,83,76,70,66,61,57,72,60,43,29.99,29.89,11,4,17,0.00
2013-5-29,86,77,69,64,59,52,72,55,32,30.04,29.93,7,4,14,0.00
2013-5-30,87,78,70,67,65,63,84,65,47,30.10,29.96,7,3,14,0.00
2013-5-31,82,73,66,70,66,63,99,79,57,30.02,29.91,10,3,20,0.45
2013-6-1,80,74,67,71,68,65,99,82,61,29.93,29.74,10,5,19,0.11
2013-6-2,76,70,64,70,62,57,98,76,54,29.91,29.76,5,3,11,0.01
2013-6-3,66,60,54,58,52,48,85,74,58,30.03,29.90,5,2,8,0.00
2013-6-4,75,63,48,51,46,38,98,59,27,30.12,30.02,4,1,9,0.00
2013-6-5,80,70,55,58,52,47,76,55,39,30.07,29.83,3,1,6,0.00
2013-6-6,72,65,62,66,62,56,99,90,58,29.85,29.75,4,0,6,0.97
2013-6-7,73,64,57,62,57,55,99,82,53,29.87,29.78,4,1,7,0.00
2013-6-8,72,64,54,60,57,53,97,78,64,30.01,29.85,3,0,4,0.00
2013-6-9,80,72,62,66,63,58,96,75,48,30.03,29.87,4,1,9,0.00
2013-6-10,78,68,64,68,65,60,99,91,56,29.87,29.75,6,2,10,0.64
2013-6-11,83,73,64,69,65,62,99,80,51,29.93,29.81,5,2,9,0.02
2013-6-12,88,80,72,75,71,67,85,74,58,29.89,29.69,8,3,13,0.00
2013-6-13,82,71,66,73,63,54,99,78,47,29.88,29.58,9,4,15,1.05
2013-6-14,78,69,58,61,57,54,91,67,46,30.03,29.88,5,2,8,0.00
2013-6-15,80,70,58,63,60,56,98,71,47,30.09,29.91,4,1,8,0.00
2013-6-16,76,72,68,69,66,62,96,81,70,29.97,29.89,5,2,11,0.04
2013-6-17,85,75,68,72,67,61,99,79,47,29.95,29.84,4,1,7,0.00
2013-6-18,83,74,65,70,64,58,99,74,51,29.98,29.82,5,2,17,0.07
2013-6-19,79,68,57,58,53,47,93,61,37,30.09,29.97,3,1,6,0.00
2013-6-20,84,71,57,61,57,51,85,62,39,30.17,30.09,3,1,5,0.00
2013-6-21,85,75,61,65,61,57,92,66,42,30.18,30.07,4,1,7,0.00
2013-6-22,86,77,68,72,68,65,94,74,58,30.13,30.01,5,2,9,0.00
2013-6-23,88,76,67,72,67,59,99,75,45,30.10,29.99,9,2,14,0.00
2013-6-24,85,76,67,71,68,66,96,77,56,30.10,29.98,5,2,9,0.00
2013-6-25,90,80,69,74,71,68,99,75,51,30.02,29.84,6,3,11,0.00
2013-6-26,84,73,68,74,70,67,99,90,67,29.91,29.74,8,2,23,0.65
2013-6-27,85,74,68,75,70,67,99,87,59,29.76,29.65,6,2,9,0.05
2013-6-28,83,73,64,70,66,58,95,82,45,29.67,29.56,10,3,16,0.12
2013-6-29,70,67,63,66,65,62,99,92,88,29.59,29.55,3,2,4,0.00
2013-6-30,72,70,68,68,66,64,99,88,82,29.94,29.58,3,2,4,0.06
2013-7-1,76,68,64,71,66,61,99,92,81,30.03,29.92,3,1,7,0.11
2013-7-2,81,73,66,70,67,65,99,83,62,30.11,30.01,4,1,8,0.00
2013-7-3,81,75,68,70,68,65,99,80,58,30.22,30.10,5,1,9,0.00
2013-7-4,74,69,68,71,69,68,99,99,87,30.26,30.17,3,1,6,0.65
2013-7-5,77,71,66,71,69,66,99,93,78,30.25,30.17,4,1,6,0.11
2013-7-6,78,71,69,76,70,68,99,98,88,30.22,30.13,6,1,8,1.28
2013-7-7,79,71,65,71,68,65,99,89,67,30.21,30.12,4,1,6,0.00
2013-7-8,85,76,69,74,70,68,99,84,65,30.22,30.12,4,2,8,0.05
2013-7-9,88,79,73,76,73,70,99,82,62,30.17,30.08,6,3,11,0.20
2013-7-10,88,81,75,78,76,73,99,85,69,30.09,29.93,6,3,11,0.00
2013-7-11,74,70,65,58,57,55,79,65,53,30.12,30.09,3,0,4,0.00
2013-7-12,79,70,60,62,59,56,94,70,46,30.20,30.11,5,1,7,0.00
2013-7-13,84,74,65,68,65,61,92,73,53,30.24,30.16,5,1,8,0.00
2013-7-14,88,79,69,75,71,67,94,78,61,30.31,30.23,4,1,8,0.00
2013-7-15,91,81,72,74,72,68,98,75,50,30.40,30.32,4,1,9,0.00
2013-7-16,90,81,72,79,73,71,99,78,56,30.42,30.34,2,0,4,0.00
2013-7-17,90,82,74,77,74,72,99,78,55,30.42,30.27,4,1,6,0.00
2013-7-18,92,83,73,77,72,69,99,73,49,30.30,30.11,3,1,7,0.00
2013-7-19,89,81,76,79,74,70,94,81,62,30.15,29.98,6,2,11,0.05
2013-7-20,86,76,70,76,72,66,99,88,58,30.02,29.94,8,2,13,0.66
2013-7-21,82,75,68,75,71,68,99,90,72,30.08,29.98,2,0,4,0.00
2013-7-22,75,72,70,74,72,70,99,98,91,30.02,29.87,2,0,4,0.74
2013-7-23,85,75,68,76,70,64,99,86,55,29.93,29.82,6,2,10,0.00
2013-7-24,75,67,61,64,58,54,90,74,58,30.10,29.92,5,2,8,0.00
2013-7-25,77,66,55,58,55,52,96,69,42,30.18,30.11,4,1,5,0.00
2013-7-26,80,69,56,62,58,56,99,71,44,30.19,30.06,4,1,7,0.00
2013-7-27,76,68,63,69,62,56,99,81,51,30.06,29.93,6,2,9,0.61
2013-7-28,71,63,55,57,53,50,99,71,49,30.15,30.00,6,2,11,0.00
2013-7-29,76,66,58,58,55,53,87,68,48,30.28,30.15,6,2,10,0.00
2013-7-30,78,69,58,65,60,56,98,75,48,30.33,30.21,3,1,4,0.00
2013-7-31,73,69,66,69,66,64,99,91,85,30.22,30.04,4,1,7,0.00
2013-8-1,80,72,66,70,65,60,99,80,52,30.09,30.01,5,2,7,0.01
2013-8-2,81,71,59,66,61,57,98,72,48,30.10,30.03,5,2,9,0.00
2013-8-3,80,72,67,72,66,59,99,83,51,30.12,30.04,4,1,7,0.22
2013-8-4,76,69,60,64,57,54,88,68,47,30.23,30.12,5,2,11,0.00
2013-8-5,77,67,58,64,58,56,97,75,52,30.22,30.07,3,1,5,0.01
2013-8-6,80,71,61,69,63,58,93,77,56,30.09,30.01,4,1,8,0.00
2013-8-7,82,76,69,75,72,68,99,88,71,30.04,29.97,4,1,7,0.00
2013-8-8,85,75,71,78,73,71,99,94,72,30.05,29.98,5,1,9,0.94
2013-8-9,79,73,68,74,70,68,99,93,72,30.11,29.99,4,0,7,0.07
2013-8-10,82,74,67,72,68,66,99,84,61,30.20,30.11,3,0,5,0.00
2013-8-11,85,76,66,73,68,65,99,80,58,30.17,30.11,5,1,9,0.00
2013-8-12,85,74,65,70,66,60,99,78,44,30.17,29.97,5,1,8,0.00
2013-8-13,77,71,60,71,62,49,98,75,50,30.15,29.93,6,3,11,0.01
2013-8-14,68,60,52,52,50,48,90,71,50,30.26,30.15,4,1,9,0.00
2013-8-15,74,61,50,57,53,50,99,76,48,30.27,30.19,3,1,7,0.00
2013-8-16,77,67,56,57,55,53,90,67,47,30.26,30.20,4,1,7,0.00
2013-8-17,80,69,59,63,59,54,85,70,50,30.29,30.22,4,1,8,0.00
2013-8-18,81,70,60,67,62,58,99,78,50,30.28,30.17,3,1,6,0.00
2013-8-19,82,71,61,69,62,55,99,77,40,30.24,30.16,4,1,6,0.00
2013-8-20,84,73,62,71,64,61,99,75,49,30.28,30.18,3,1,7,0.00
2013-8-21,83,73,66,74,68,65,99,86,64,30.27,30.15,4,1,8,0.02
2013-8-22,84,73,69,72,70,68,99,91,59,30.21,30.11,8,1,10,0.27
2013-8-23,84,74,67,71,66,60,99,80,47,30.25,30.14,3,1,6,0.00
2013-8-24,82,72,60,68,62,56,93,71,50,30.37,30.25,3,1,6,0.00
2013-8-25,84,73,61,66,61,54,99,69,36,30.42,30.31,4,1,7,0.00
2013-8-26,86,76,64,73,67,62,97,75,48,30.35,30.16,5,2,8,0.00
2013-8-27,87,79,72,76,73,69,99,82,64,30.17,30.05,4,1,6,0.00
2013-8-28,89,81,74,75,74,72,98,79,62,30.07,29.97,6,3,11,0.00
2013-8-29,82,75,70,74,71,69,99,89,66,30.15,30.06,2,0,4,0.00
2013-8-30,87,77,67,75,69,65,99,80,50,30.10,29.93,4,1,8,0.00
2013-8-31,86,76,70,78,72,68,99,86,57,29.96,29.87,9,1,12,0.30
2013-9-1,83,75,68,72,70,67,99,86,66,29.94,29.86,5,1,8,0.00
2013-9-2,82,75,69,74,69,59,99,83,58,29.99,29.87,6,2,8,0.00
2013-9-3,72,65,56,59,56,53,97,74,55,30.16,29.99,5,2,10,0.00
2013-9-4,79,67,54,63,58,54,99,75,46,30.24,30.15,4,1,7,0.00
2013-9-5,82,70,59,65,59,48,97,69,44,30.30,30.20,4,1,8,0.00
2013-9-6,78,65,53,53,49,42,90,60,29,30.34,30.20,3,1,6,0.00
2013-9-7,83,71,56,66,58,49,87,66,51,30.20,30.04,3,1,7,0.00
2013-9-8,86,76,67,70,67,65,95,75,51,30.11,30.03,3,1,6,0.00
2013-9-9,89,77,66,73,68,65,99,76,47,30.14,30.05,6,2,11,0.00
2013-9-10,92,83,76,76,73,70,88,73,55,30.22,30.11,6,3,11,0.00
2013-9-11,90,81,73,74,71,66,93,73,46,30.24,30.10,5,2,8,0.00
2013-9-12,79,73,64,73,69,62,99,88,60,30.11,29.94,5,2,10,0.47
2013-9-13,64,58,52,63,50,44,98,75,52,30.19,30.01,6,3,11,0.00
2013-9-14,68,56,44,48,45,42,99,71,39,30.27,30.18,3,1,5,0.00
2013-9-15,75,62,47,57,50,46,99,70,42,30.24,30.11,5,1,10,0.00
2013-9-16,69,61,57,60,56,52,99,85,62,30.38,30.18,4,1,6,0.04
2013-9-17,75,62,50,55,52,49,99,75,45,30.42,30.26,3,1,6,0.00
2013-9-18,79,66,58,67,59,54,99,79,45,30.27,30.14,5,1,8,0.00
2013-9-19,78,69,64,72,67,64,99,93,73,30.18,30.06,4,1,6,0.19
2013-9-20,86,73,68,71,69,67,99,88,57,30.10,29.88,7,2,11,1.58
2013-9-21,71,65,57,68,58,49,99,82,51,29.97,29.78,8,3,13,0.84
2013-9-22,65,57,49,51,47,45,97,73,49,30.11,29.97,5,1,9,0.00
2013-9-23,67,56,45,52,47,44,99,75,50,30.22,30.11,4,1,7,0.00
2013-9-24,70,57,44,53,48,44,99,75,52,30.19,30.03,3,1,5,0.00
2013-9-25,70,60,51,55,52,48,96,77,54,30.04,29.98,2,0,5,0.00
2013-9-26,78,63,51,62,54,50,99,76,44,30.17,30.02,3,0,6,0.00
2013-9-27,78,63,50,56,50,43,97,66,31,30.27,30.17,2,0,4,0.00
2013-9-28,78,65,51,60,54,49,99,71,37,30.28,30.15,4,1,7,0.00
2013-9-29,69,62,57,63,59,55,99,91,72,30.16,30.10,6,2,9,0.04
2013-9-30,69,64,60,64,62,60,99,96,83,30.12,30.05,4,2,8,0.01
2013-10-1,76,66,57,68,62,57,99,87,65,30.18,30.09,5,1,8,0.01
2013-10-2,79,70,64,71,66,62,99,90,72,30.21,30.13,3,1,5,0.00
2013-10-3,73,69,66,72,68,66,99,99,97,30.18,30.09,3,0,5,0.64
2013-10-4,80,70,65,75,69,64,99,96,72,30.17,30.11,4,1,9,0.11
2013-10-5,79,71,66,73,69,65,99,94,77,30.14,30.02,6,2,11,0.05
2013-10-6,72,64,52,70,63,52,99,98,88,30.04,29.79,8,2,14,1.90
2013-10-7,60,52,46,53,47,44,99,86,61,30.24,29.89,6,2,11,0.01
2013-10-8,69,54,42,53,46,42,99,78,42,30.36,30.23,3,1,8,0.00
2013-10-9,73,57,45,53,48,44,99,75,40,30.34,30.25,2,1,4,0.00
2013-10-10,74,57,44,51,46,43,99,71,34,30.28,30.16,3,0,4,0.00
2013-10-11,79,62,49,54,51,47,97,71,39,30.20,30.11,2,0,4,0.00
2013-10-12,77,64,52,63,58,51,99,83,59,30.21,30.12,3,1,5,0.00
2013-10-13,73,62,54,63,54,43,99,80,48,30.38,30.20,4,1,6,0.00
2013-10-14,71,57,46,55,46,43,93,69,39,30.42,30.27,4,1,8,0.00
2013-10-15,72,60,50,65,58,48,99,93,76,30.29,30.03,5,1,8,0.09
2013-10-16,66,61,51,64,58,46,99,89,61,30.05,29.97,4,2,7,0.20
2013-10-17,53,48,42,52,46,42,99,94,84,30.06,29.94,4,1,9,0.08
2013-10-18,64,53,44,50,46,43,99,79,49,30.11,30.01,5,2,11,0.00
2013-10-19,53,46,42,46,43,39,99,90,76,30.06,29.92,6,2,10,0.11
2013-10-20,61,49,40,44,41,38,93,74,51,30.10,30.04,7,4,12,0.00
2013-10-21,65,55,46,49,43,39,94,65,47,30.09,29.96,8,4,12,0.04
2013-10-22,52,44,34,44,31,26,91,63,38,30.12,29.94,6,2,10,0.02
2013-10-23,44,39,34,40,36,32,99,90,73,30.10,29.84,6,2,8,0.22
2013-10-24,42,38,35,37,34,32,97,86,74,30.32,30.09,6,2,8,0.01
2013-10-25,48,38,30,35,29,25,91,72,41,30.48,30.32,5,2,8,0.00
2013-10-26,48,41,33,39,31,27,78,68,54,30.34,30.00,10,4,15,0.00
2013-10-27,56,43,33,42,35,33,99,76,45,30.19,30.11,4,1,8,0.00
2013-10-28,62,46,32,44,36,32,99,73,39,30.38,30.17,3,0,5,0.00
2013-10-29,57,48,36,46,42,36,99,81,61,30.44,30.30,2,0,4,0.00
2013-10-30,62,56,49,61,55,44,99,98,77,30.29,30.07,2,0,4,0.07
2013-10-31,64,62,58,64,60,57,99,93,82,30.09,29.43,11,6,22,0.93
2013-11-1,62,55,48,57,48,43,99,81,52,29.83,29.50,7,3,12,0.04
2013-11-2,53,48,44,44,41,36,94,77,53,30.15,29.81,8,3,11,0.00
2013-11-3,53,44,38,43,40,35,97,84,57,30.44,30.15,4,1,8,0.00
2013-11-4,56,47,38,43,38,33,89,71,52,30.48,30.38,5,2,9,0.00
2013-11-5,60,54,49,47,44,40,91,70,53,30.48,30.29,4,1,7,0.00
2013-11-6,64,56,44,59,49,39,99,79,55,30.29,30.05,10,4,20,0.11
2013-11-7,48,43,39,44,34,26,99,73,43,30.32,30.10,6,3,11,0.00
2013-11-8,50,40,31,36,32,28,96,74,50,30.43,30.25,6,2,8,0.00
2013-11-9,61,50,40,41,33,27,71,54,39,30.30,30.07,11,5,21,0.00
2013-11-10,50,43,32,41,32,28,88,66,50,30.41,30.15,9,4,13,0.00
2013-11-11,50,41,31,44,34,28,99,79,47,30.37,30.14,8,3,13,0.00
2013-11-12,35,29,24,32,24,21,99,83,61,30.65,30.33,7,2,12,0.01
2013-11-13,39,30,21,24,20,16,96,69,40,30.67,30.44,7,3,11,0.00
2013-11-14,53,41,30,24,19,10,72,46,18,30.44,30.22,10,5,14,0.00
2013-11-15,51,45,39,43,27,19,86,50,37,30.24,30.17,8,4,12,0.00
2013-11-16,60,52,45,56,50,42,99,92,85,30.22,29.99,9,4,16,0.00
2013-11-17,64,59,50,63,56,41,99,90,60,29.99,29.59,14,7,22,0.00
2013-11-18,52,45,36,41,35,29,86,69,49,30.25,29.85,13,6,20,0.00
2013-11-19,43,36,30,30,28,26,90,74,54,30.42,30.25,5,2,9,0.00
2013-11-20,51,38,29,33,29,24,85,70,49,30.41,30.30,7,3,10,0.00
2013-11-21,57,48,40,49,40,31,92,75,59,30.40,30.26,7,2,11,0.01
2013-11-22,52,47,36,52,45,29,99,93,76,30.43,30.23,10,4,16,0.04
2013-11-23,37,29,20,30,22,9,98,75,51,30.59,30.39,12,6,20,0.01
2013-11-24,27,20,13,13,10,8,81,67,49,30.71,30.56,7,3,11,0.00
2013-11-25,36,28,17,29,16,12,96,65,39,30.57,30.24,9,3,14,0.00
2013-11-26,34,32,30,33,31,28,99,97,89,30.27,29.99,2,0,4,0.05
2013-11-27,32,26,22,30,19,14,91,75,55,30.32,29.97,0,0,0,0.00
2013-11-28,34,26,20,18,16,13,82,65,44,30.49,30.32,9,2,13,0.00
2013-11-29,41,29,21,23,20,16,84,68,46,30.68,30.49,4,2,7,0.00
2013-11-30,50,36,25,30,26,20,84,67,40,30.58,30.23,7,2,11,0.00
2013-12-1,52,42,37,36,32,27,89,67,52,30.24,30.03,6,3,13,0.00
2013-12-2,49,40,34,40,36,33,99,87,69,30.03,29.89,3,1,5,0.06
2013-12-3,51,42,34,50,42,34,99,97,89,29.97,29.88,4,1,6,0.00
2013-12-4,62,53,44,58,52,43,99,96,86,29.97,29.82,7,3,17,0.00
2013-12-5,63,48,31,60,45,29,99,91,80,30.22,29.84,9,4,15,0.11
2013-12-6,31,27,25,30,27,25,99,99,93,30.44,30.19,0,0,0,0.00
2013-12-7,31,23,16,25,18,13,99,84,60,30.64,30.42,0,0,0,0.04
2013-12-8,32,23,16,31,21,13,99,91,81,30.57,30.06,0,0,0,0.00
2013-12-9,32,28,22,32,26,17,99,90,79,30.28,30.04,6,1,10,0.00
2013-12-10,29,22,18,18,15,11,96,77,48,30.39,30.18,11,4,17,0.00
2013-12-11,35,22,12,23,16,9,95,78,54,30.54,30.31,10,4,16,0.04
2013-12-12,22,16,5,10,5,-1,88,64,36,30.58,30.37,8,4,11,0.01
2013-12-13,38,28,18,29,17,8,94,65,48,30.38,30.22,7,3,9,0.01
2013-12-14,36,33,27,36,32,27,99,99,95,30.22,29.78,6,2,9,0.44
2013-12-15,28,25,23,27,22,15,99,87,68,30.17,29.92,0,0,0,0.00
2013-12-16,30,24,22,30,23,21,99,95,85,30.19,30.04,0,0,0,0.00
2013-12-17,33,28,26,33,26,24,99,94,85,30.20,30.03,0,0,1,0.00
2013-12-18,36,28,20,25,20,16,99,72,49,30.31,30.11,10,3,14,0.05
2013-12-19,51,43,35,40,31,20,78,63,52,30.15,30.03,10,4,14,0.00
2013-12-20,59,53,49,59,47,37,99,81,60,30.03,29.90,11,8,19,0.00
2013-12-21,66,60,52,65,59,51,99,99,94,29.90,29.56,13,7,20,1.48
2013-12-22,63,52,37,62,50,37,99,90,70,30.11,29.59,14,7,24,0.37
2013-12-23,37,30,25,36,25,18,99,82,73,30.43,30.10,9,5,13,0.01
2013-12-24,25,17,11,21,11,6,89,79,65,30.59,30.40,8,4,14,0.00
2013-12-25,32,24,14,23,16,11,89,71,51,30.55,30.24,8,4,11,0.00
2013-12-26,38,32,28,28,23,20,87,68,48,30.40,30.22,8,5,14,0.00
2013-12-27,47,38,31,31,28,24,79,66,52,30.45,30.33,8,4,11,0.00
2013-12-28,54,43,36,34,31,28,77,63,45,30.33,30.09,7,4,13,0.00
2013-12-29,42,38,31,41,35,28,99,88,57,30.09,29.86,10,3,14,0.26
2013-12-30,31,26,21,28,21,15,91,84,77,30.29,30.09,7,2,12,0.00
2013-12-31,31,26,21,21,17,14,82,70,57,30.41,30.20,7,3,13,0.00
2014-1-1,42,32,23,30,25,18,89,77,59,30.35,30.09,4,0,7,0.00
2014-1-2,30,21,8,28,19,4,99,93,84,30.30,29.91,10,4,17,0.00